Westminster, MD

3:00 AM EST on November 21, 2019 (GMT -0500)
Carroll County Regional-Poage

Weather History for KDMW - September, 2019

Change the Weather History Date:

Wednesday, September 18, 2019

  Actual Average (KTHV) Record (KTHV)
Temperature  
Mean Temperature 66 °F -  
Max Temperature 78 °F 0 °F 84 °F (2006)
Min Temperature 55 °F - 39 °F (2013)
Cooling Degree Days 2    
Growing Degree Days 16 (Base 50)    
Moisture  
Dew Point 51 °F    
Average Humidity 62    
Maximum Humidity 88    
Minimum Humidity 32    
Precipitation  
Precipitation 0.00 in - - ()
Sea Level Pressure  
Sea Level Pressure 30.21 in    
Wind  
Wind Speed 2 mph (NE)    
Max Wind Speed 8 mph    
Max Gust Speed 9 mph    
Visibility 10 miles    
Events      
Averages and records for this station are not official NWS values.
T = Trace of Precipitation, MM = Missing Value Source: NWS Daily Summary

Daily Weather History Graph

Daily Weather History Graph

Search for Another Location

Airport or City:

Astronomy

Sep. 18, 2019 Rise Set
Actual Time 6:51 AM EDT 7:12 PM EDT
Civil Twilight 6:24 AM EDT 7:38 PM EDT
Nautical Twilight 5:53 AM EDT 8:10 PM EDT
Astronomical Twilight 5:20 AM EDT 8:42 PM EDT
Moon 9:45 PM EDT (9/18) 10:52 AM EDT (9/18)
Length of Visible Light 13h 14m
Length of Day
12h 20m
Waning Gibbous, 82% of the Moon is Illuminated
Sep 18
Waning Gibbous
Sep 21
Last Quarter
Sep 28
New
Oct 5
First Quarter
Oct 13
Full

Hourly Weather History & Observations

Time (EDT) Temp. Dew Point Humidity Pressure Visibility Wind Dir Wind Speed Gust Speed Precip Events Conditions
12:00 AM 62.6 °F 53.6 °F 72% 30.15 in 10.0 mi Calm Calm - N/A   Clear
12:20 AM 62.6 °F 53.6 °F 72% 30.15 in 10.0 mi North 3.5 mph - N/A   Clear
12:40 AM 60.8 °F 53.6 °F 77% 30.15 in 10.0 mi Calm Calm - N/A   Clear
1:00 AM 62.6 °F 51.8 °F 68% 30.15 in 10.0 mi Calm Calm - N/A   Clear
1:20 AM 60.8 °F 53.6 °F 77% 30.16 in 10.0 mi Calm Calm - N/A   Clear
1:40 AM 60.8 °F 51.8 °F 72% 30.16 in 10.0 mi SE 5.8 mph - N/A   Clear
2:00 AM 60.8 °F 51.8 °F 72% 30.16 in 10.0 mi Calm Calm - N/A   Clear
2:20 AM 60.8 °F 51.8 °F 72% 30.16 in 10.0 mi Calm Calm - N/A   Clear
2:40 AM 57.2 °F 51.8 °F 82% 30.16 in 10.0 mi Calm Calm - N/A   Clear
3:00 AM 60.8 °F 51.8 °F 72% 30.16 in 10.0 mi Calm Calm - N/A   Clear
3:40 AM 57.2 °F 51.8 °F 82% 30.16 in 10.0 mi Calm Calm - N/A   Clear
4:20 AM 57.2 °F 51.8 °F 82% 30.17 in 10.0 mi Calm Calm - N/A   Clear
4:40 AM 57.2 °F 51.8 °F 82% 30.16 in 10.0 mi Calm Calm - N/A   Clear
5:00 AM 57.2 °F 51.8 °F 82% 30.16 in 10.0 mi Calm Calm - N/A   Clear
5:20 AM 57.2 °F 51.8 °F 82% 30.17 in 10.0 mi Calm Calm - N/A   Clear
5:40 AM 57.2 °F 51.8 °F 82% 30.17 in 10.0 mi Calm Calm - N/A   Clear
6:00 AM 57.2 °F 51.8 °F 82% 30.18 in 10.0 mi Calm Calm - N/A   Clear
6:20 AM 57.2 °F 51.8 °F 82% 30.19 in 10.0 mi Calm Calm - N/A   Clear
6:40 AM 55.4 °F 51.8 °F 88% 30.19 in 10.0 mi North 3.5 mph - N/A   Clear
7:00 AM 55.4 °F 51.8 °F 88% 30.20 in 10.0 mi North 3.5 mph - N/A   Clear
7:20 AM 55.4 °F 51.8 °F 88% 30.20 in 10.0 mi North 3.5 mph - N/A   Clear
7:40 AM 55.4 °F 51.8 °F 88% 30.21 in 10.0 mi NNE 3.5 mph - N/A   Clear
8:00 AM 57.2 °F 51.8 °F 82% 30.22 in 10.0 mi NNE 3.5 mph - N/A   Clear
8:20 AM 59.0 °F 51.8 °F 77% 30.22 in 10.0 mi NE 3.5 mph - N/A   Clear
8:40 AM 60.8 °F 51.8 °F 72% 30.22 in 10.0 mi NE 4.6 mph - N/A   Clear
9:00 AM 62.6 °F 53.6 °F 72% 30.23 in 10.0 mi NE 5.8 mph - N/A   Clear
9:20 AM 64.4 °F 55.4 °F 73% 30.23 in 10.0 mi NNE 4.6 mph - N/A   Clear
9:40 AM 66.2 °F 55.4 °F 68% 30.23 in 10.0 mi Calm Calm - N/A   Clear
10:00 AM 66.2 °F 57.2 °F 73% 30.23 in 10.0 mi NE 3.5 mph - N/A   Clear
10:20 AM 68.0 °F 57.2 °F 68% 30.23 in 10.0 mi Calm Calm - N/A   Clear
10:40 AM 69.8 °F 55.4 °F 60% 30.23 in 10.0 mi NW 3.5 mph - N/A   Mostly Cloudy
11:00 AM 69.8 °F 55.4 °F 60% 30.23 in 10.0 mi NNE 4.6 mph - N/A   Overcast
11:20 AM 69.8 °F 55.4 °F 60% 30.23 in 10.0 mi Calm Calm - N/A   Scattered Clouds
11:40 AM 71.6 °F 53.6 °F 53% 30.23 in 10.0 mi ENE 3.5 mph - N/A   Scattered Clouds
12:00 PM 71.6 °F 53.6 °F 53% 30.23 in 10.0 mi NE 4.6 mph - N/A   Scattered Clouds
12:20 PM 73.4 °F 53.6 °F 50% 30.23 in 10.0 mi NNW 6.9 mph - N/A   Scattered Clouds
12:40 PM 73.4 °F 48.2 °F 41% 30.23 in 10.0 mi NE 3.5 mph - N/A   Scattered Clouds
1:00 PM 73.4 °F 51.8 °F 47% 30.22 in 10.0 mi North 4.6 mph - N/A   Scattered Clouds
1:20 PM 73.4 °F 50.0 °F 44% 30.22 in 10.0 mi NE 4.6 mph - N/A   Scattered Clouds
1:40 PM 73.4 °F 48.2 °F 41% 30.22 in 10.0 mi ENE 6.9 mph - N/A   Clear
2:00 PM 75.2 °F 48.2 °F 38% 30.21 in 10.0 mi NNE 4.6 mph - N/A   Clear
2:20 PM 77.0 °F 48.2 °F 36% 30.21 in 10.0 mi ENE 5.8 mph - N/A   Clear
2:40 PM 77.0 °F 48.2 °F 36% 30.21 in 10.0 mi North 4.6 mph 9.2 mph N/A   Clear
3:00 PM 75.2 °F 46.4 °F 36% 30.21 in 10.0 mi NE 6.9 mph - N/A   Clear
3:40 PM 77.0 °F 46.4 °F 34% 30.21 in 10.0 mi NNE 3.5 mph - N/A   Clear
4:20 PM 78.8 °F 48.2 °F 34% 30.21 in 10.0 mi ENE 6.9 mph - N/A   Clear
4:40 PM 78.8 °F 46.4 °F 32% 30.21 in 10.0 mi NE 8.1 mph - N/A   Clear
5:00 PM 75.2 °F 46.4 °F 36% 30.21 in 10.0 mi North 4.6 mph - N/A   Clear
5:20 PM 75.2 °F 44.6 °F 34% 30.21 in 10.0 mi NE 6.9 mph - N/A   Clear
5:40 PM 75.2 °F 46.4 °F 36% 30.21 in 10.0 mi NNE 3.5 mph - N/A   Clear
6:00 PM 75.2 °F 46.4 °F 36% 30.21 in 10.0 mi NE 5.8 mph - N/A   Clear
6:20 PM 73.4 °F 46.4 °F 38% 30.22 in 10.0 mi NE 5.8 mph - N/A   Clear
6:40 PM 73.4 °F 48.2 °F 41% 30.22 in 10.0 mi NE 4.6 mph - N/A   Clear
7:00 PM 71.6 °F 50.0 °F 46% 30.22 in 10.0 mi NE 3.5 mph - N/A   Clear
7:20 PM 69.8 °F 51.8 °F 53% 30.23 in 10.0 mi NE 3.5 mph - N/A   Clear
7:40 PM 68.0 °F 51.8 °F 56% 30.24 in 10.0 mi NE 3.5 mph - N/A   Clear
8:00 PM 66.2 °F 51.8 °F 60% 30.24 in 10.0 mi ENE 4.6 mph - N/A   Clear
8:20 PM 66.2 °F 51.8 °F 60% 30.24 in 10.0 mi Calm Calm - N/A   Clear
8:40 PM 66.2 °F 51.8 °F 60% 30.25 in 10.0 mi Calm Calm - N/A   Clear
9:00 PM 64.4 °F 51.8 °F 64% 30.25 in 10.0 mi Calm Calm - N/A   Clear
9:20 PM 64.4 °F 51.8 °F 64% 30.25 in 10.0 mi Calm Calm - N/A   Clear
9:40 PM 64.4 °F 51.8 °F 64% 30.26 in 10.0 mi Calm Calm - N/A   Clear
10:20 PM 62.6 °F 51.8 °F 68% 30.26 in 10.0 mi Calm Calm - N/A   Clear
10:40 PM 62.6 °F 51.8 °F 68% 30.27 in 10.0 mi ENE 3.5 mph - N/A   Clear
11:00 PM 62.6 °F 51.8 °F 68% 30.27 in 10.0 mi Calm Calm - N/A   Clear
11:20 PM 62.6 °F 51.8 °F 68% 30.28 in 10.0 mi ESE 5.8 mph - N/A   Clear
11:40 PM 62.6 °F 53.6 °F 72% 30.28 in 10.0 mi ESE 4.6 mph - N/A   Clear